Location: Newark
(12.4436°N, 0.6167°W)
Time: 13:41:16
(UTC+00:00)

Vanguard 2 - Pass Details

Date: 12 December 2019
Orbit: 553 x 2938 km, 32.9° (Epoch: 17 January)

Event Time Altitude Azimuth Distance (km) Brightness Sun altitude
Rises 19:53:23 0° 193° (SSW) 3,639 11.4 -31.6°
Reaches altitude 10° 19:56:40 10° 173° (S) 3,030 10.7 -32.4°
Enters shadow 19:59:27 16° 151° (SSE) 2,855 10.3 -33.0°
Maximum altitude 20:01:38 18° 132° (SE) 2,967 - -33.5°
Drops below altitude 10° 20:08:11 10° 94° (E) 4,206 - -35.0°
Sets 20:14:00 0° 79° (E) 5,719 - -36.3°
